STARLINK-32046, 60198

Orbit data source: Space-Track

STARLINK-32046, 60198 is a payload satellite owned by SpaceX/Seattle (US) in LEO that was launched on Wed, 03 Jul 2024 UTC via an FALCON 9 launch vehicle from the Air Force Eastern Test Range (AFETR). Payload-class satellites include a variety of spacecraft equipped with specific instruments for various scientific and technological missions. These include communications satellites like Starlink; space stations such as the ISS; scientific satellites like the Hubble; Earth observation satellites from companies like Planet Labs, Umbra, and HawkEye 360; GPS; miniature CubeSats for education and research; and military/defense satellites.

Loading next visibility...
Identifier
60198, 2024-124R
Orbit
LEO
Country
Flag of USUS
Related business
Manufacturer
SpaceX/Seattle
Mission
Operational Commercial Communications
Bus & Motor
STARLINK V2M, Unknown motor
Mass
730 kg wet, ~700 kg dry
Launch date (UTC)
2024-07-03 (2 years ago)
Launch vehicle
FALCON 9
Launch site
Air Force Eastern Test Range (AFETR)
Object type
Payload
Rocket body
Debris
Shape & HBR
Box + 2 Pan, 17.7 m
Radar Cross Section
33.884 m², Large (>1 m²)

Expand to show TLE details & history
Last TLE update: 19 hours ago

TLE from 19 hours ago
0 STARLINK-32046
1 60198U 24124R   26035.50002315 -.00001655  00000-0 -43776-4 0  9999
2 60198  53.1596 116.6947 0001325  56.1982 303.9145 15.30180043 90448
Epoch: 2026-02-04T12:00Z
TLE epoch observation values (Epoch: 2026-02-04T12:00:02.000Z)
Latitude
0.00001°
Longitude
162.02066°
Altitude
475.668 km
Speed
7.629 km/s
True Right ascension
07h 46m 46s
True Declination
0° 00' 00"
Sunlit
Object was in full shadow at epoch
Visualization orbit readout
Latitude
Unknown
Longitude
Unknown
Altitude
Unknown
Speed
Unknown
Apparent Right ascension
Unknown
Apparent Declination
Unknown
Sunlit
N/A
Visualization observer readout
Local Sidereal Time
08:58:29
Azimuth
Unknown
Elevation
Unknown
Doppler factor
Unknown
Orbital elements
Apogee altitude
476.439 km
Perigee altitude
474.623 km
Semi-major axis
6,853.668 km
Eccentricity
0.00013
Inclination
53.1596°
RAAN
116.6947°
Arg. of periapsis
56.1982°
True anomaly
303.9019°
Mean anomaly
303.9145°
Eccentric anomaly
303.9082°
Mean motion
3.82524 °/min
Orbital period
94.11 mins
BSTAR
-0.000043776
Loading maneuver chart data...
Computing Atmospheric mass density...
Loading historical data...
Loading historical data...
Loading historical data...
Loading historical data...
Loading historical data...
Loading historical data...
Loading historical data...

Documentation

Showing up to 5 results
|